This is the latest recevied weather packets stored in our database for station/object KJ5IIV. If no packets are shown the sender has not sent any weather packets the latest 10 day(s).
| Time | Temp. | Humidity | Pressure | Rain* | Wind** | Luminosity | Snow |
|---|---|---|---|---|---|---|---|
| 1777727311 | 15° C | 75% | 1020.2 hPa | 0 mm | - | 240 W/m² | - |
| 1777727009 | 15° C | 76% | 1019.9 hPa | 0 mm | - | 193 W/m² | - |
| 1777726706 | 15° C | 77% | 1020.2 hPa | 0 mm | - | 165 W/m² | - |
| 1777726403 | 14.44° C | 80% | 1020.2 hPa | 0 mm | - | 139 W/m² | - |
| 1777726100 | 13.89° C | 82% | 1019.9 hPa | 0 mm | - | 127 W/m² | - |
| 1777725796 | 13.89° C | 82% | 1020 hPa | 0 mm | - | 107 W/m² | - |
| 1777725495 | 13.89° C | 82% | 1019.8 hPa | 0 mm | - | 76 W/m² | - |
| 1777725192 | 13.89° C | 84% | 1019.9 hPa | 0 mm | - | 95 W/m² | - |
| 1777724888 | 13.33° C | 86% | 1019.8 hPa | 0 mm | - | 94 W/m² | - |
| 1777724584 | 12.78° C | 86% | 1019.9 hPa | 0 mm | - | 76 W/m² | - |
| 1777724283 | 12.78° C | 91% | 1019.8 hPa | 0 mm | - | 68 W/m² | - |
| 1777723980 | 11.67° C | 94% | 1019.7 hPa | 0 mm | - | 71 W/m² | - |
| 1777723677 | 10.56° C | 94% | 1019.8 hPa | 0 mm | - | 61 W/m² | - |
| 1777723373 | 10.56° C | 94% | 1019.6 hPa | 0 mm | - | 36 W/m² | - |
| 1777723071 | 10.56° C | 94% | 1019.6 hPa | 0 mm | - | 24 W/m² | - |
| 1777722768 | 10.56° C | 94% | 1019.4 hPa | 0 mm | - | 18 W/m² | - |
| 1777722464 | 10.56° C | 94% | 1019.1 hPa | 0 mm | - | 14 W/m² | - |
| 1777722161 | 10.56° C | 94% | 1018.9 hPa | 0 mm | - | 10 W/m² | - |
| 1777721858 | 10.56° C | 93% | 1018.7 hPa | 0 mm | - | 6 W/m² | - |
| 1777721556 | 10.56° C | 93% | 1018.7 hPa | 0.51 mm | - | 4 W/m² | - |
| 1777721254 | 10.56° C | 93% | 1018.7 hPa | 0.51 mm | - | 2 W/m² | - |
| 1777720951 | 10.56° C | 93% | 1018.5 hPa | 0 mm | - | 1 W/m² | - |
| 1777720648 | 10.56° C | 93% | 1018.4 hPa | 0 mm | - | 0 W/m² | - |
| 1777720346 | 10.56° C | 93% | 1018.2 hPa | 0 mm | - | 0 W/m² | - |
| 1777720043 | 10.56° C | 93% | 1018.3 hPa | 0 mm | - | 0 W/m² | - |
* Rain latest hour (hover to see other rain measurements)
** Current wind speed in m/s (hover to see current wind gust speed)